Ashland, WI

11:11 PM CST on December 02, 2016 (GMT -0600)
Kennedy Memorial

Weather History for KASX - June, 2013

Change the Weather History Date:

Friday, June 14, 2013

  Actual Average Record
Temperature  
Mean Temperature 56 °F -  
Max Temperature 73 °F 75 °F 95 °F (1988)
Min Temperature 42 °F 50 °F 30 °F (1965)
Degree Days  
Heating Degree Days 8    
Growing Degree Days 6 (Base 50)    
Moisture  
Dew Point 47 °F    
Average Humidity 76    
Maximum Humidity 100    
Minimum Humidity 51    
Precipitation  
Precipitation 0.00 in - - ()
Sea Level Pressure  
Sea Level Pressure 30.10 in    
Wind  
Wind Speed 4 mph (NE)    
Max Wind Speed 14 mph    
Max Gust Speed 18 mph    
Visibility 8 miles    
Events      
Averages and records for this station are not official NWS values.
T = Trace of Precipitation, MM = Missing Value Source: NWS Daily Summary

Daily Weather History Graph

Daily Weather History Graph

Search for Another Location

Airport or City:

Trip Planner

Search our weather history database for the weather conditions in past years. The results will help you decide how hot, cold, wet, or windy it might be!

Date:

Astronomy

Jun. 14, 2013 Rise Set
Actual Time 5:09 AM CDT 8:58 PM CDT
Civil Twilight 4:30 AM CDT 9:37 PM CDT
Nautical Twilight 3:37 AM CDT 10:30 PM CDT
Astronomical Twilight 2:21 AM CDT 11:47 PM CDT
Moon 11:03 AM CDT (6/14) No Moon Set
Length of Visible Light 17h 06m
Length of Day
15h 48m
Waxing Crescent, 30% of the Moon is Illuminated
Jun 14
Waxing Crescent
Jun 16
First Quarter
Jun 23
Full
Jun 29
Last Quarter
Jul 8
New

Hourly Weather History & Observations

Time (CDT) Temp. Windchill Dew Point Humidity Pressure Visibility Wind Dir Wind Speed Gust Speed Precip Events Conditions
12:53 AM 50.0 °F - 48.0 °F 93% 30.16 in 10.0 mi ENE 4.6 mph - N/A   Clear
1:53 AM 48.9 °F - 46.9 °F 93% 30.16 in 10.0 mi East 3.5 mph - N/A   Clear
2:53 AM 45.0 °F - 44.1 °F 97% 30.16 in 10.0 mi Calm Calm - N/A   Clear
3:53 AM 43.0 °F - 41.0 °F 93% 30.17 in 3.0 mi Calm Calm - N/A   Clear
3:56 AM 42.8 °F - 41.0 °F 93% 30.16 in 1.5 mi Calm Calm - N/A   Clear
4:06 AM 42.8 °F - 42.8 °F 100% 30.16 in 0.8 mi Calm Calm - N/A   Clear
4:29 AM 44.6 °F - 42.8 °F 93% 30.16 in 1.8 mi Calm Calm - N/A   Clear
4:53 AM 42.1 °F 39.2 °F 39.9 °F 92% 30.16 in 3.0 mi ENE 4.6 mph - N/A   Clear
5:53 AM 44.1 °F - 42.1 °F 93% 30.18 in 10.0 mi Calm Calm - N/A   Clear
6:53 AM 50.0 °F - 48.0 °F 93% 30.17 in 10.0 mi Calm Calm - N/A   Clear
7:53 AM 55.9 °F - 48.9 °F 77% 30.17 in 10.0 mi ENE 3.5 mph - N/A   Clear
8:53 AM 61.0 °F - 50.0 °F 67% 30.18 in 10.0 mi ENE 3.5 mph - N/A   Clear
9:53 AM 64.9 °F - 53.1 °F 65% 30.17 in 10.0 mi North 4.6 mph - N/A   Clear
10:53 AM 68.0 °F - 55.9 °F 65% 30.14 in 10.0 mi NE 4.6 mph - N/A   Clear
11:53 AM 70.0 °F - 55.0 °F 59% 30.12 in 10.0 mi North 8.1 mph - N/A   Clear
12:53 PM 71.1 °F - 54.0 °F 55% 30.10 in 10.0 mi NNE 11.5 mph - N/A   Clear
1:53 PM 71.1 °F - 54.0 °F 55% 30.08 in 10.0 mi NNE 11.5 mph - N/A   Clear
2:53 PM 70.0 °F - 52.0 °F 53% 30.07 in 10.0 mi ENE 8.1 mph 18.4 mph N/A   Clear
3:53 PM 66.9 °F - 48.0 °F 51% 30.04 in 10.0 mi NE 13.8 mph - N/A   Clear
4:53 PM 63.0 °F - 51.1 °F 65% 30.03 in 10.0 mi North 12.7 mph - N/A   Clear
5:53 PM 55.0 °F - 46.0 °F 72% 30.05 in 10.0 mi North 9.2 mph - N/A   Partly Cloudy
6:53 PM 55.9 °F - 45.0 °F 67% 30.04 in 10.0 mi NNE 5.8 mph - N/A   Overcast
7:53 PM 55.0 °F - 44.1 °F 67% 30.04 in 10.0 mi North 6.9 mph - N/A   Mostly Cloudy
8:53 PM 55.0 °F - 45.0 °F 69% 30.01 in 10.0 mi NNE 4.6 mph - N/A   Overcast
9:53 PM 53.1 °F - 45.0 °F 74% 29.99 in 10.0 mi ENE 3.5 mph - N/A   Mostly Cloudy
10:53 PM 54.0 °F - 46.0 °F 75% 29.99 in 10.0 mi Calm Calm - N/A   Overcast
11:53 PM 54.0 °F - 46.9 °F 77% 29.97 in 10.0 mi Calm Calm - N/A   Overcast